Haleyville, AL

3:32 PM CDT on October 01, 2016 (GMT -0500)
Haleyville

Weather History for K1M4 - October, 2014

Change the Weather History Date:

Wednesday, October 29, 2014

  Actual Average (KJFX) Record (KJFX)
Temperature  
Mean Temperature 54 °F -  
Max Temperature 65 °F 70 °F 93 °F (2011)
Min Temperature 41 °F 42 °F 25 °F (1968)
Degree Days  
Heating Degree Days 11    
Growing Degree Days 4 (Base 50)    
Moisture  
Dew Point 52 °F    
Average Humidity 86    
Maximum Humidity 100    
Minimum Humidity 42    
Precipitation  
Precipitation 0.61 in - - ()
Sea Level Pressure  
Sea Level Pressure 30.14 in    
Wind  
Wind Speed 6 mph (North)    
Max Wind Speed 13 mph    
Max Gust Speed 21 mph    
Visibility 8 miles    
Events Rain , Thunderstorm    
Averages and records for this station are not official NWS values.
T = Trace of Precipitation, MM = Missing Value Source: NWS Daily Summary

Daily Weather History Graph

Daily Weather History Graph

Search for Another Location

Airport or City:

Trip Planner

Search our weather history database for the weather conditions in past years. The results will help you decide how hot, cold, wet, or windy it might be!

Date:

Astronomy

Oct. 29, 2014 Rise Set
Actual Time 7:07 AM CDT 6:00 PM CDT
Civil Twilight 6:41 AM CDT 6:25 PM CDT
Nautical Twilight 6:12 AM CDT 6:55 PM CDT
Astronomical Twilight 5:43 AM CDT 7:24 PM CDT
Moon 12:22 PM CDT (10/29) 11:12 PM CDT (10/29)
Length of Visible Light 11h 44m
Length of Day
10h 52m
Waxing Crescent, 34% of the Moon is Illuminated
Oct 29
Waxing Crescent
Oct 30
First Quarter
Nov 6
Full
Nov 14
Last Quarter
Nov 22
New

Hourly Weather History & Observations

Time (CDT) Temp. Dew Point Humidity Pressure Visibility Wind Dir Wind Speed Gust Speed Precip Events Conditions
12:56 AM 63.0 °F 61.0 °F 93% 30.11 in 10.0 mi SSW 5.8 mph - 0.00 in   Clear
1:56 AM 63.9 °F 59.9 °F 87% 30.09 in 10.0 mi South 3.5 mph - N/A   Clear
2:37 AM 62.6 °F 60.8 °F 94% 30.09 in 2.5 mi North 12.7 mph 20.7 mph 0.11 in Rain Heavy Rain
2:41 AM 62.6 °F 60.8 °F 94% 30.10 in 1.2 mi NW 10.4 mph 18.4 mph 0.16 in Rain Heavy Rain
2:44 AM 62.6 °F 60.8 °F 94% 30.10 in 1.0 mi Variable 5.8 mph - 0.20 in Rain Heavy Rain
2:56 AM 61.0 °F 59.0 °F 93% 30.13 in 1.2 mi NW 6.9 mph - 0.30 in Rain , Thunderstorm Heavy Thunderstorms and Rain
3:03 AM 60.8 °F 60.8 °F 100% 30.09 in 1.2 mi NNW 5.8 mph - 0.07 in Rain , Thunderstorm Heavy Thunderstorms and Rain
3:20 AM 60.8 °F 60.8 °F 100% 30.09 in 1.5 mi Calm Calm - 0.18 in Rain , Thunderstorm Heavy Thunderstorms and Rain
3:35 AM 60.8 °F 60.8 °F 100% 30.08 in 3.0 mi North 3.5 mph - 0.22 in Rain , Thunderstorm Light Thunderstorms and Rain
3:44 AM 60.8 °F 60.8 °F 100% 30.07 in 10.0 mi NNE 3.5 mph - 0.22 in Rain , Thunderstorm Light Thunderstorms and Rain
3:56 AM 59.9 °F 59.9 °F 100% 30.11 in 10.0 mi Calm Calm - 0.22 in Rain Light Rain
4:23 AM 60.8 °F 60.8 °F 100% 30.09 in 8.0 mi Calm Calm - 0.02 in Rain Light Rain
4:31 AM 60.8 °F 60.8 °F 100% 30.09 in 4.0 mi NW 3.5 mph - 0.04 in Rain , Thunderstorm Heavy Thunderstorms and Rain
4:46 AM 60.8 °F 60.8 °F 100% 30.09 in 5.0 mi North 9.2 mph - 0.07 in Rain Heavy Rain
4:56 AM 57.9 °F 57.9 °F 100% 30.12 in 8.0 mi North 9.2 mph - 0.08 in Rain Rain
5:20 AM 55.4 °F 55.4 °F 100% 30.10 in 10.0 mi North 8.1 mph - 0.00 in Rain Light Rain
5:40 AM 55.4 °F 55.4 °F 100% 30.10 in 10.0 mi North 8.1 mph - 0.00 in   Overcast
5:56 AM 54.9 °F 54.9 °F 100% 30.14 in 6.0 mi North 9.2 mph - 0.01 in Rain Rain
6:56 AM 52.0 °F 52.0 °F 100% 30.15 in 6.0 mi North 8.1 mph - 0.00 in   Overcast
7:56 AM 50.9 °F 50.9 °F 100% 30.17 in 5.0 mi North 8.1 mph - N/A   Overcast
8:56 AM 52.0 °F 52.0 °F 100% 30.19 in 10.0 mi NNE 9.2 mph - N/A   Overcast
9:04 AM 53.6 °F 53.6 °F 100% 30.16 in 10.0 mi NNE 5.8 mph - N/A   Overcast
9:29 AM 53.6 °F 51.8 °F 94% 30.17 in 10.0 mi NNE 9.2 mph - N/A   Mostly Cloudy
9:56 AM 54.9 °F 52.0 °F 90% 30.20 in 10.0 mi Variable 6.9 mph - N/A   Scattered Clouds
10:56 AM 59.9 °F 50.0 °F 70% 30.21 in 10.0 mi North 11.5 mph 17.3 mph N/A   Clear
11:56 AM 63.0 °F 46.9 °F 56% 30.21 in 10.0 mi Variable 6.9 mph - N/A   Clear
12:56 PM 63.9 °F 43.9 °F 48% 30.19 in 10.0 mi NNE 10.4 mph - N/A   Clear
1:56 PM 64.9 °F 43.0 °F 45% 30.17 in 10.0 mi North 5.8 mph - N/A   Clear
2:56 PM 65.8 °F 41.9 °F 42% 30.16 in 10.0 mi North 12.7 mph - N/A   Clear
3:56 PM 64.9 °F 41.0 °F 42% 30.15 in 10.0 mi NNW 10.4 mph - N/A   Clear
4:56 PM 64.9 °F 41.0 °F 42% 30.15 in 10.0 mi Calm Calm - N/A   Clear
5:56 PM 57.9 °F 41.9 °F 55% 30.16 in 10.0 mi Calm Calm - N/A   Clear
6:56 PM 52.0 °F 43.9 °F 74% 30.17 in 10.0 mi Calm Calm - N/A   Clear
7:56 PM 48.9 °F 45.0 °F 86% 30.18 in 10.0 mi Calm Calm - N/A   Clear
8:56 PM 45.9 °F 43.9 °F 93% 30.19 in 10.0 mi Calm Calm - N/A   Clear
9:56 PM 43.9 °F 43.0 °F 97% 30.19 in 10.0 mi Calm Calm - N/A   Clear
10:56 PM 43.0 °F 41.9 °F 96% 30.19 in 10.0 mi Calm Calm - N/A   Clear
11:56 PM 41.9 °F 41.9 °F 100% 30.19 in 10.0 mi Calm Calm - N/A   Clear